Acazulco, Mexico

8:35 AM CST on February 23, 2017 (GMT -0600)
Lic Adolfo Lopez Mateos International

Weather History for MMTO - September, 2012

Change the Weather History Date:

Thursday, September 6, 2012

  Actual Average Record
Temperature  
Mean Temperature 62 °F -  
Max Temperature 75 °F 67 °F 75 °F (2012)
Min Temperature 50 °F 48 °F 39 °F (2000)
Degree Days  
Heating Degree Days 2    
Growing Degree Days 12 (Base 50)    
Moisture  
Dew Point 49 °F    
Average Humidity 73    
Maximum Humidity 94    
Minimum Humidity 25    
Precipitation  
Precipitation 0.00 in - - ()
Sea Level Pressure  
Sea Level Pressure 30.21 in    
Wind  
Wind Speed 3 mph ()    
Max Wind Speed 9 mph    
Max Gust Speed -    
Visibility 4.7 miles    
Events Fog    
Averages and records for this station are not official NWS values.
T = Trace of Precipitation, MM = Missing Value Source: Averaged Metar Reports

Daily Weather History Graph

Daily Weather History Graph

Search for Another Location

Airport or City:

Trip Planner

Search our weather history database for the weather conditions in past years. The results will help you decide how hot, cold, wet, or windy it might be!

Date:

Astronomy

Sep. 06, 2012 Rise Set
Actual Time 7:24 AM CDT 7:48 PM CDT
Civil Twilight 7:02 AM CDT 8:10 PM CDT
Nautical Twilight 6:36 AM CDT 8:36 PM CDT
Astronomical Twilight 6:10 AM CDT 9:02 PM CDT
Moon 11:55 PM CDT (9/6) 12:30 PM CDT (9/6)
Length of Visible Light 13h 08m
Length of Day
12h 24m
Waning Gibbous, 67% of the Moon is Illuminated
Sep 6
Waning Gibbous
Sep 8
Last Quarter
Sep 15
New
Sep 22
First Quarter
Sep 29
Full

Hourly Weather History & Observations

Time (CDT) Temp. Dew Point Humidity Pressure Visibility Wind Dir Wind Speed Gust Speed Precip Events Conditions
12:46 AM 57.2 °F 51.8 °F 82% 29.79 in 5.0 mi WNW 3.5 mph - N/A   Mostly Cloudy
1:45 AM 57.2 °F 51.8 °F 82% 30.39 in 5.0 mi NNW 3.5 mph - N/A   Mostly Cloudy
2:40 AM 57.2 °F 51.8 °F 82% 30.40 in 5.0 mi Calm Calm - N/A   Scattered Clouds
3:46 AM 53.6 °F 50.0 °F 88% 29.73 in 4.0 mi WSW 4.6 mph - N/A   Scattered Clouds
4:40 AM 53.6 °F 50.0 °F 88% 30.37 in 3.0 mi Calm Calm - N/A   Scattered Clouds
5:51 AM 51.8 °F 48.2 °F 88% 30.36 in 1.0 mi WNW 4.6 mph - N/A   Mostly Cloudy
6:02 AM 51.8 °F 48.2 °F 88% 30.36 in 0.2 mi NW 4.6 mph - N/A Fog Fog
6:30 AM 51.8 °F 50.0 °F 94% 30.37 in 1.0 mi Calm Calm - N/A   Overcast
6:45 AM 51.8 °F 50.0 °F 94% 29.79 in 1.0 mi Calm Calm - N/A   Overcast
7:30 AM 50.0 °F 48.2 °F 94% 30.38 in 0.2 mi Calm Calm - N/A Fog Fog
7:45 AM 51.8 °F 48.2 °F 88% 30.39 in 0.2 mi WNW 3.5 mph - N/A Fog Fog
8:30 AM 51.8 °F 50.0 °F 94% 30.42 in 0.5 mi Calm Calm - N/A Fog Fog
8:44 AM 51.8 °F 50.0 °F 94% 30.42 in 2.0 mi ENE 3.5 mph - N/A   Overcast
9:42 AM 55.4 °F 50.0 °F 82% 29.88 in 2.0 mi Calm Calm - N/A   Mostly Cloudy
10:44 AM 62.6 °F 50.0 °F 63% 30.44 in 2.0 mi Calm Calm - N/A   Scattered Clouds
11:44 AM 64.4 °F 50.0 °F 59% 30.44 in 3.0 mi NNW 3.5 mph - N/A   Mostly Cloudy
12:50 PM 68.0 °F 48.2 °F 49% 29.78 in 5.0 mi NW 6.9 mph - N/A   Mostly Cloudy
1:46 PM 69.8 °F 46.4 °F 43% 30.40 in 6.0 mi WNW 5.8 mph - N/A   Mostly Cloudy
2:43 PM 69.8 °F 46.4 °F 43% 30.36 in 10.0 mi WSW 9.2 mph - N/A   Mostly Cloudy
3:47 PM 75.2 °F 37.4 °F 25% 29.65 in 10.0 mi WNW 9.2 mph - N/A   Mostly Cloudy
4:44 PM 71.6 °F 39.2 °F 31% 30.31 in 10.0 mi NE 6.9 mph - N/A   Mostly Cloudy
5:43 PM 69.8 °F 37.4 °F 31% 30.30 in 10.0 mi East 5.8 mph - N/A   Mostly Cloudy
6:50 PM 66.2 °F 53.6 °F 64% 29.72 in 10.0 mi ESE 8.1 mph - N/A   Mostly Cloudy
7:47 PM 62.6 °F 53.6 °F 72% 30.33 in 8.0 mi South 8.1 mph - N/A   Mostly Cloudy
8:43 PM 60.8 °F 53.6 °F 77% 30.35 in 7.0 mi SSE 9.2 mph - N/A   Scattered Clouds
9:45 PM 57.2 °F 53.6 °F 88% 29.84 in 7.0 mi SSE 8.1 mph - N/A   Scattered Clouds
10:45 PM 57.2 °F 51.8 °F 82% 30.41 in 7.0 mi Calm Calm - N/A   Scattered Clouds
11:45 PM 55.4 °F 50.0 °F 82% 30.42 in 7.0 mi Calm Calm - N/A   Partly Cloudy